Torna al catalogo

FENGYUN 1C DEB

AttivoSSO
NORAD 30840·DEBRIS·🇨🇳 China

Lanciato May 10, 1999 da Taiyuan Satellite Launch Center

Loading…

Prossimi Passaggi (prossime 24 ore)

TLE

AggiornatoSource: Space-Track

Epoca: Sep 14, 2026, 07:01 UTC

1 30840U 99025AWA 26257.29296327  .00001526  00000-0  22389-3 0  9993
2 30840  98.0185 265.8962 0210265 222.4969 135.9793 14.63173667771585

Traccia FENGYUN 1C DEB in tempo reale con AllMySat

Download on the App Store